Regional Weather Roundup
Issued by NWS Memphis, TN

Home | Current Version | Previous Version | Text Only | Print | Product List | Glossary On
Versions: 1 2 3 4 5 6 7 8 9 10 11 12 13 14 15 16 17 18 19 20 21 22 23 24 25 26 27 28 29 30 31 32 33 34 35 36 37 38 39 40 41 42 43 44 45 46 47 48 49 50
076
ASUS44 KMEG 110410
RWRMEG
MEMPHIS CWA HOURLY WEATHER ROUNDUP
NATIONAL WEATHER SERVICE MEMPHIS TN
1000 PM CST WED FEB 10 2016

...WEST TENNESSEE...

CITY           SKY/WX    TMP DP  RH WIND       PRES   REMARKS
MEMPHIS INTL   CLEAR     36  18  48 E8        30.11F WCI  30
NWS MEMPHIS      N/A    N/A N/A N/A MISG        N/A
JACKSON        CLEAR     27  12  53 E6        30.17F WCI  20
DYERSBURG      PTCLDY    28  12  50 E6        30.17F WCI  22
UNION CITY     PTCLDY    25  16  68 E6        30.15F WCI  18
PARIS          CLOUDY    23  16  74 E6        30.16F WCI  16


...EASTERN ARKANSAS...

CITY           SKY/WX    TMP DP  RH WIND       PRES   REMARKS
JONESBORO      CLEAR     29  18  63 E9        30.12F WCI  20
WEST MEMPHIS   CLEAR     34  22  61 E7        30.11S WCI  28
BATESVILLE     CLEAR     34  19  55 E8        30.08S WCI  27
NEWPORT        CLEAR     32  23  69 E10       30.10F WCI  24
WALNUT RIDGE   CLEAR     30  12  47 SE8       30.12S WCI  23
BLYTHEVILLE    CLEAR     30  16  56 E9        30.14F WCI  22
SEARCY         CLEAR     34  24  67 NE5       30.07S WCI  30
STUTTGART      CLEAR     39  28  65 SE7       30.06F WCI  34
PINE BLUFF     CLEAR     36  27  69 SE5       30.05F WCI  32
MONTICELLO     CLEAR     46  29  51 SW7       30.07S


...NORTH MISSISSIPPI...

CITY           SKY/WX    TMP DP  RH WIND       PRES   REMARKS
TUPELO         CLEAR     28  19  69 N6        30.17R WCI  22
OXFORD         CLEAR     28  18  64 SE3       30.15S
TUNICA         CLEAR     32  23  69 E6        30.12F WCI  26
CORINTH        CLEAR     30  10  43 CALM      30.17F
GREENWOOD      CLEAR     34  25  69 CALM      30.11F
COLUMBUS       CLEAR     29  24  81 CALM      30.16R
STARKVILLE     FAIR      30  25  80 CALM      30.15S
GOLDEN TRIANGL CLEAR     34  19  55 CALM      30.15R


...SOUTHEAST MISSOURI...

CITY           SKY/WX    TMP DP  RH WIND       PRES   REMARKS
WEST PLAINS    CLEAR     29  10  45 E7        30.05F WCI  22
POPLAR BLUFF   CLEAR     25  17  72 E5        30.13F WCI  19
CAPE GIRARDEAU CLOUDY    24  19  81 E6        30.16F WCI  17


...NORTHWEST ALABAMA...

CITY           SKY/WX    TMP DP  RH WIND       PRES   REMARKS
MUSCLE SHOALS  CLEAR     29  12  49 CALM      30.21R


...MIDDLE TENNESSEE...

CITY           SKY/WX    TMP DP  RH WIND       PRES   REMARKS
NASHVILLE      FLURRIES  26  19  74 CALM      30.21F
CLARKSVILLE    CLOUDY    24  20  84 S3        30.20S
COLUMBIA       CLOUDY    27  25  93 CALM      30.18R


...WESTERN KENTUCKY...

CITY           SKY/WX    TMP DP  RH WIND       PRES   REMARKS
PADUCAH        CLOUDY    25  20  81 SE5       30.17F WCI  19
FORT CAMPBELL  CLOUDY    24  20  85 SW3       30.19S


...CENTRAL ARKANSAS...

CITY           SKY/WX    TMP DP  RH WIND       PRES   REMARKS
LITTLE ROCK    CLEAR     40  25  55 SE5       30.04F


SKY/WX REPORTED AS FAIR MEANS FEW OR NO CLOUDS BELOW
12 THOUSAND FEET.





USA.gov is the U.S. government's official web portal to all federal, state and local government web resources and services.